Weather History for KCKC - November, 2013

Change the Weather History Date:

Wednesday, November 20, 2013

  Actual Average Record
Temperature  
Mean Temperature 34 °F -  
Max Temperature 37 °F 29 °F 51 °F (2003)
Min Temperature 32 °F 18 °F 0 °F (2014)
Degree Days  
Heating Degree Days 30    
Moisture  
Dew Point 25 °F    
Average Humidity 66    
Maximum Humidity 87    
Minimum Humidity 52    
Precipitation  
Precipitation 0.00 in - - ()
Sea Level Pressure  
Sea Level Pressure 29.93 in    
Wind  
Wind Speed 9 mph (South)    
Max Wind Speed 14 mph    
Max Gust Speed 24 mph    
Visibility 9 miles    
Events      
Averages and records for this station are not official NWS values.
T = Trace of Precipitation, MM = Missing Value Source: NWS Daily Summary

Daily Weather History Graph

Daily Weather History Graph

Search for Another Location

Airport or City:

Trip Planner

Search our weather history database for the weather conditions in past years. The results will help you decide how hot, cold, wet, or windy it might be!

Date:

Astronomy

Nov. 20, 2013 Rise Set
Actual Time 7:15 AM CST 4:18 PM CST
Civil Twilight 6:40 AM CST 4:53 PM CST
Nautical Twilight 6:02 AM CST 5:31 PM CST
Astronomical Twilight 5:26 AM CST 6:07 PM CST
Moon 7:01 PM CST (11/20) 9:40 AM CST (11/20)
Length of Visible Light 10h 12m
Length of Day
9h 03m
Waning Gibbous, 91% of the Moon is Illuminated
Nov 20
Waning Gibbous
Nov 25
Last Quarter
Dec 2
New
Dec 9
First Quarter
Dec 17
Full

Hourly Weather History & Observations

Time (CST) Temp. Windchill Dew Point Humidity Pressure Visibility Wind Dir Wind Speed Gust Speed Precip Events Conditions
12:13 AM 33.8 °F 25.3 °F 21.2 °F 60% 29.91 in 10.0 mi SSE 11.5 mph 21.9 mph N/A   Overcast
12:34 AM 33.8 °F 24.8 °F 21.2 °F 60% 29.91 in 10.0 mi SSE 12.7 mph 18.4 mph N/A   Overcast
12:54 AM 33.8 °F 26.4 °F 21.2 °F 60% 29.90 in 10.0 mi SSE 9.2 mph 19.6 mph N/A   Overcast
1:13 AM 33.8 °F 24.8 °F 23.0 °F 65% 29.89 in 10.0 mi SSE 12.7 mph 19.6 mph N/A   Overcast
1:33 AM 33.8 °F 25.8 °F 23.0 °F 65% 29.88 in 10.0 mi South 10.4 mph 21.9 mph N/A   Overcast
1:53 AM 33.8 °F 26.4 °F 23.0 °F 65% 29.89 in 10.0 mi SSE 9.2 mph 24.2 mph N/A   Overcast
2:13 AM 33.8 °F 24.3 °F 23.0 °F 65% 29.88 in 10.0 mi SSE 13.8 mph 23.0 mph N/A   Overcast
2:33 AM 33.8 °F 25.3 °F 23.0 °F 65% 29.88 in 10.0 mi SSE 11.5 mph 20.7 mph N/A   Overcast
2:53 AM 33.8 °F 25.3 °F 23.0 °F 65% 29.88 in 10.0 mi SSE 11.5 mph 18.4 mph N/A   Overcast
3:14 AM 33.8 °F 24.8 °F 23.0 °F 65% 29.88 in 10.0 mi SSE 12.7 mph 19.6 mph N/A   Overcast
3:33 AM 35.6 °F 27.5 °F 23.0 °F 60% 29.87 in 10.0 mi SSE 11.5 mph 19.6 mph N/A   Overcast
3:53 AM 35.6 °F 28.6 °F 23.0 °F 60% 29.88 in 10.0 mi SSE 9.2 mph 18.4 mph N/A   Overcast
4:13 AM 35.6 °F 27.1 °F 23.0 °F 60% 29.87 in 10.0 mi South 12.7 mph 23.0 mph N/A   Overcast
4:34 AM 35.6 °F 28.0 °F 21.2 °F 56% 29.88 in 10.0 mi South 10.4 mph 19.6 mph N/A   Overcast
4:53 AM 35.6 °F 28.0 °F 21.2 °F 56% 29.88 in 10.0 mi South 10.4 mph 17.3 mph N/A   Overcast
5:13 AM 35.6 °F 27.5 °F 23.0 °F 60% 29.87 in 10.0 mi South 11.5 mph 17.3 mph N/A   Overcast
5:33 AM 35.6 °F 28.6 °F 23.0 °F 60% 29.88 in 10.0 mi South 9.2 mph 16.1 mph N/A   Overcast
5:53 AM 37.4 °F 29.8 °F 21.2 °F 52% 29.88 in 10.0 mi South 11.5 mph 17.3 mph N/A   Overcast
6:13 AM 35.6 °F 27.5 °F 21.2 °F 56% 29.88 in 10.0 mi South 11.5 mph 20.7 mph N/A   Overcast
6:34 AM 35.6 °F 29.2 °F 23.0 °F 60% 29.89 in 10.0 mi South 8.1 mph 18.4 mph N/A   Overcast
6:54 AM 35.6 °F 29.2 °F 23.0 °F 60% 29.89 in 10.0 mi South 8.1 mph - N/A   Overcast
7:14 AM 35.6 °F 28.6 °F 24.8 °F 65% 29.89 in 10.0 mi South 9.2 mph - N/A   Overcast
7:33 AM 35.6 °F 29.9 °F 24.8 °F 65% 29.90 in 10.0 mi South 6.9 mph 16.1 mph N/A   Overcast
7:53 AM 35.6 °F 28.6 °F 24.8 °F 65% 29.90 in 10.0 mi South 9.2 mph - N/A   Overcast
8:13 AM 35.6 °F 28.6 °F 23.0 °F 60% 29.90 in 10.0 mi South 9.2 mph - N/A   Overcast
8:33 AM 35.6 °F 29.9 °F 23.0 °F 60% 29.91 in 10.0 mi South 6.9 mph - N/A   Overcast
8:54 AM 37.4 °F 30.8 °F 21.2 °F 52% 29.92 in 10.0 mi South 9.2 mph - N/A   Overcast
9:14 AM 37.4 °F 32.1 °F 23.0 °F 56% 29.92 in 10.0 mi South 6.9 mph - N/A   Overcast
9:33 AM 37.4 °F 32.1 °F 23.0 °F 56% 29.92 in 10.0 mi South 6.9 mph - N/A   Overcast
9:53 AM 37.4 °F 31.4 °F 24.8 °F 60% 29.93 in 10.0 mi South 8.1 mph - N/A   Overcast
10:14 AM 37.4 °F 30.8 °F 24.8 °F 60% 29.93 in 10.0 mi South 9.2 mph - N/A   Overcast
10:34 AM 37.4 °F 31.4 °F 26.6 °F 65% 29.93 in 10.0 mi South 8.1 mph - N/A   Overcast
10:53 AM 37.4 °F 32.1 °F 26.6 °F 65% 29.93 in 10.0 mi South 6.9 mph - N/A   Overcast
11:13 AM 37.4 °F 32.1 °F 26.6 °F 65% 29.93 in 10.0 mi SSE 6.9 mph - N/A   Overcast
11:34 AM 37.4 °F 32.1 °F 26.6 °F 65% 29.93 in 10.0 mi SSE 6.9 mph - N/A   Overcast
11:54 AM 37.4 °F 31.4 °F 24.8 °F 60% 29.92 in 10.0 mi South 8.1 mph 16.1 mph N/A   Overcast
12:13 PM 37.4 °F 32.1 °F 24.8 °F 60% 29.92 in 10.0 mi SSE 6.9 mph - N/A   Overcast
12:34 PM 37.4 °F 32.1 °F 24.8 °F 60% 29.92 in 10.0 mi SSE 6.9 mph - N/A   Overcast
12:54 PM 37.4 °F 32.8 °F 26.6 °F 65% 29.92 in 10.0 mi SSE 5.8 mph - N/A   Overcast
1:13 PM 37.4 °F 31.4 °F 26.6 °F 65% 29.92 in 10.0 mi South 8.1 mph - N/A   Overcast
1:34 PM 37.4 °F 32.1 °F 24.8 °F 60% 29.93 in 10.0 mi South 6.9 mph - N/A   Scattered Clouds
1:53 PM 37.4 °F 32.1 °F 24.8 °F 60% 29.93 in 10.0 mi South 6.9 mph - N/A   Scattered Clouds
2:13 PM 37.4 °F 33.8 °F 24.8 °F 60% 29.93 in 10.0 mi South 4.6 mph - N/A   Scattered Clouds
2:34 PM 37.4 °F 32.1 °F 23.0 °F 56% 29.93 in 10.0 mi South 6.9 mph - N/A   Clear
2:53 PM 37.4 °F 32.8 °F 24.8 °F 60% 29.93 in 10.0 mi South 5.8 mph - N/A   Clear
3:13 PM 35.6 °F 29.9 °F 24.8 °F 65% 29.94 in 10.0 mi South 6.9 mph - N/A   Clear
3:34 PM 35.6 °F 29.2 °F 24.8 °F 65% 29.94 in 10.0 mi South 8.1 mph - N/A   Mostly Cloudy
3:53 PM 35.6 °F 30.7 °F 23.0 °F 60% 29.95 in 10.0 mi South 5.8 mph - N/A   Overcast
4:13 PM 35.6 °F 32.8 °F 23.0 °F 60% 29.95 in 10.0 mi South 3.5 mph - N/A   Overcast
4:34 PM 35.6 °F 32.8 °F 24.8 °F 65% 29.95 in 10.0 mi SSE 3.5 mph - N/A   Mostly Cloudy
4:53 PM 35.6 °F 32.8 °F 24.8 °F 65% 29.96 in 10.0 mi SSE 3.5 mph - N/A   Overcast
5:13 PM 35.6 °F 31.7 °F 24.8 °F 65% 29.96 in 10.0 mi SSE 4.6 mph - N/A   Overcast
5:33 PM 35.6 °F 31.7 °F 24.8 °F 65% 29.97 in 10.0 mi SSE 4.6 mph - N/A   Overcast
5:54 PM 35.6 °F 32.8 °F 26.6 °F 70% 29.97 in 10.0 mi South 3.5 mph - N/A   Light Drizzle
6:13 PM 33.8 °F 29.6 °F 26.6 °F 75% 29.97 in 10.0 mi SSE 4.6 mph - N/A   Light Drizzle
6:33 PM 35.6 °F 29.9 °F 26.6 °F 70% 29.97 in 10.0 mi South 6.9 mph - N/A   Overcast
6:54 PM 35.6 °F 31.7 °F 26.6 °F 70% 29.98 in 10.0 mi SSE 4.6 mph - N/A   Overcast
7:13 PM 35.6 °F 30.7 °F 26.6 °F 70% 29.98 in 10.0 mi South 5.8 mph - N/A   Overcast
7:33 PM 35.6 °F 31.7 °F 26.6 °F 70% 29.98 in 10.0 mi SSE 4.6 mph - N/A   Overcast
7:54 PM 33.8 °F 27.0 °F 30.2 °F 87% 29.99 in 10.0 mi South 8.1 mph - N/A   Overcast
8:13 PM 33.8 °F 27.7 °F 30.2 °F 87% 29.99 in 5.0 mi South 6.9 mph - N/A   Light Drizzle
8:34 PM 33.8 °F 28.6 °F 30.2 °F 87% 29.99 in 4.0 mi South 5.8 mph - N/A   Light Drizzle
8:53 PM 33.8 °F 27.0 °F 28.4 °F 81% 29.99 in 3.0 mi South 8.1 mph - N/A   Drizzle
9:13 PM 33.8 °F 27.7 °F 28.4 °F 81% 30.00 in 3.0 mi South 6.9 mph - N/A   Light Drizzle
9:34 PM 33.8 °F 27.7 °F 28.4 °F 81% 30.00 in 4.0 mi South 6.9 mph - N/A   Light Drizzle
9:53 PM 33.8 °F 28.6 °F 28.4 °F 81% 30.00 in 2.5 mi South 5.8 mph - N/A   Light Drizzle
10:14 PM 33.8 °F 27.0 °F 28.4 °F 81% 30.00 in 3.0 mi South 8.1 mph - N/A   Light Drizzle
10:33 PM 32.0 °F 24.8 °F 28.4 °F 87% 30.00 in 4.0 mi South 8.1 mph - N/A   Light Drizzle
10:54 PM 32.0 °F 26.4 °F 28.4 °F 87% 30.00 in 4.0 mi South 5.8 mph - N/A   Overcast
11:13 PM 32.0 °F 26.4 °F 28.4 °F 87% 30.00 in 4.0 mi South 5.8 mph - N/A   Overcast
11:33 PM 32.0 °F 25.6 °F 28.4 °F 87% 30.00 in 4.0 mi South 6.9 mph - N/A   Overcast
11:54 PM 32.0 °F 27.5 °F 28.4 °F 87% 30.00 in 4.0 mi South 4.6 mph - N/A   Overcast